Index of /20260414/WXO-DD/model_gdps/15km/12/138
Name Last modified Size Description
Parent Directory -
20260414T12Z_MSC_GDPS_AbsoluteVorticity_IsbL-0200_LatLon0.15_PT138H.grib2 2026-04-14 16:33 1.5M
20260414T12Z_MSC_GDPS_AbsoluteVorticity_IsbL-0250_LatLon0.15_PT138H.grib2 2026-04-14 16:33 1.3M
20260414T12Z_MSC_GDPS_AbsoluteVorticity_IsbL-0500_LatLon0.15_PT138H.grib2 2026-04-14 16:33 1.4M
20260414T12Z_MSC_GDPS_AbsoluteVorticity_IsbL-0700_LatLon0.15_PT138H.grib2 2026-04-14 16:33 1.3M
20260414T12Z_MSC_GDPS_AbsoluteVorticity_IsbL-0850_LatLon0.15_PT138H.grib2 2026-04-14 16:33 1.6M
20260414T12Z_MSC_GDPS_AirTemp-Max_AGL-2m_LatLon0.15_PT138H.grib2 2026-04-14 16:33 744K
20260414T12Z_MSC_GDPS_AirTemp-Min_AGL-2m_LatLon0.15_PT138H.grib2 2026-04-14 16:33 904K
20260414T12Z_MSC_GDPS_AirTemp_AGL-120m_LatLon0.15_PT138H.grib2 2026-04-14 16:33 903K
20260414T12Z_MSC_GDPS_AirTemp_AGL-2m_LatLon0.15_PT138H.grib2 2026-04-14 16:33 1.0M
20260414T12Z_MSC_GDPS_AirTemp_AGL-40m_LatLon0.15_PT138H.grib2 2026-04-14 16:33 803K
20260414T12Z_MSC_GDPS_AirTemp_AGL-80m_LatLon0.15_PT138H.grib2 2026-04-14 16:33 911K
20260414T12Z_MSC_GDPS_AirTemp_IsbL-0001_LatLon0.15_PT138H.grib2 2026-04-14 16:33 703K
20260414T12Z_MSC_GDPS_AirTemp_IsbL-0005_LatLon0.15_PT138H.grib2 2026-04-14 16:33 689K
20260414T12Z_MSC_GDPS_AirTemp_IsbL-0010_LatLon0.15_PT138H.grib2 2026-04-14 16:33 758K
20260414T12Z_MSC_GDPS_AirTemp_IsbL-0020_LatLon0.15_PT138H.grib2 2026-04-14 16:33 700K
20260414T12Z_MSC_GDPS_AirTemp_IsbL-0030_LatLon0.15_PT138H.grib2 2026-04-14 16:33 751K
20260414T12Z_MSC_GDPS_AirTemp_IsbL-0050_LatLon0.15_PT138H.grib2 2026-04-14 16:33 816K
20260414T12Z_MSC_GDPS_AirTemp_IsbL-0100_LatLon0.15_PT138H.grib2 2026-04-14 16:33 957K
20260414T12Z_MSC_GDPS_AirTemp_IsbL-0150_LatLon0.15_PT138H.grib2 2026-04-14 16:33 1.0M
20260414T12Z_MSC_GDPS_AirTemp_IsbL-0175_LatLon0.15_PT138H.grib2 2026-04-14 16:33 967K
20260414T12Z_MSC_GDPS_AirTemp_IsbL-0200_LatLon0.15_PT138H.grib2 2026-04-14 16:33 1.0M
20260414T12Z_MSC_GDPS_AirTemp_IsbL-0225_LatLon0.15_PT138H.grib2 2026-04-14 16:33 1.0M
20260414T12Z_MSC_GDPS_AirTemp_IsbL-0250_LatLon0.15_PT138H.grib2 2026-04-14 16:33 1.0M
20260414T12Z_MSC_GDPS_AirTemp_IsbL-0275_LatLon0.15_PT138H.grib2 2026-04-14 16:33 951K
20260414T12Z_MSC_GDPS_AirTemp_IsbL-0300_LatLon0.15_PT138H.grib2 2026-04-14 16:33 1.0M
20260414T12Z_MSC_GDPS_AirTemp_IsbL-0350_LatLon0.15_PT138H.grib2 2026-04-14 16:33 919K
20260414T12Z_MSC_GDPS_AirTemp_IsbL-0400_LatLon0.15_PT138H.grib2 2026-04-14 16:33 933K
20260414T12Z_MSC_GDPS_AirTemp_IsbL-0450_LatLon0.15_PT138H.grib2 2026-04-14 16:33 955K
20260414T12Z_MSC_GDPS_AirTemp_IsbL-0500_LatLon0.15_PT138H.grib2 2026-04-14 16:33 1.0M
20260414T12Z_MSC_GDPS_AirTemp_IsbL-0550_LatLon0.15_PT138H.grib2 2026-04-14 16:33 795K
20260414T12Z_MSC_GDPS_AirTemp_IsbL-0600_LatLon0.15_PT138H.grib2 2026-04-14 16:33 889K
20260414T12Z_MSC_GDPS_AirTemp_IsbL-0650_LatLon0.15_PT138H.grib2 2026-04-14 16:33 920K
20260414T12Z_MSC_GDPS_AirTemp_IsbL-0700_LatLon0.15_PT138H.grib2 2026-04-14 16:33 952K
20260414T12Z_MSC_GDPS_AirTemp_IsbL-0750_LatLon0.15_PT138H.grib2 2026-04-14 16:33 1.0M
20260414T12Z_MSC_GDPS_AirTemp_IsbL-0800_LatLon0.15_PT138H.grib2 2026-04-14 16:33 1.1M
20260414T12Z_MSC_GDPS_AirTemp_IsbL-0850_LatLon0.15_PT138H.grib2 2026-04-14 16:33 1.1M
20260414T12Z_MSC_GDPS_AirTemp_IsbL-0875_LatLon0.15_PT138H.grib2 2026-04-14 16:33 1.2M
20260414T12Z_MSC_GDPS_AirTemp_IsbL-0900_LatLon0.15_PT138H.grib2 2026-04-14 16:33 1.1M
20260414T12Z_MSC_GDPS_AirTemp_IsbL-0925_LatLon0.15_PT138H.grib2 2026-04-14 16:33 1.1M
20260414T12Z_MSC_GDPS_AirTemp_IsbL-0950_LatLon0.15_PT138H.grib2 2026-04-14 16:33 1.1M
20260414T12Z_MSC_GDPS_AirTemp_IsbL-0970_LatLon0.15_PT138H.grib2 2026-04-14 16:33 1.1M
20260414T12Z_MSC_GDPS_AirTemp_IsbL-0985_LatLon0.15_PT138H.grib2 2026-04-14 16:33 1.1M
20260414T12Z_MSC_GDPS_AirTemp_IsbL-1000_LatLon0.15_PT138H.grib2 2026-04-14 16:33 1.1M
20260414T12Z_MSC_GDPS_AirTemp_IsbL-1015_LatLon0.15_PT138H.grib2 2026-04-14 16:33 1.1M
20260414T12Z_MSC_GDPS_Albedo_Sfc_LatLon0.15_PT138H.grib2 2026-04-14 16:33 247K
20260414T12Z_MSC_GDPS_CAPE_Sfc_LatLon0.15_PT138H.grib2 2026-04-14 16:33 4.0M
20260414T12Z_MSC_GDPS_CIN_Sfc_LatLon0.15_PT138H.grib2 2026-04-14 16:33 2.8M
20260414T12Z_MSC_GDPS_CloudWater_EAtm_LatLon0.15_PT138H.grib2 2026-04-14 16:33 528K
20260414T12Z_MSC_GDPS_ConvectivePrecip-Accum_Sfc_LatLon0.15_PT138H.grib2 2026-04-14 16:33 3.6M
20260414T12Z_MSC_GDPS_DewPointDepression_AGL-2m_LatLon0.15_PT138H.grib2 2026-04-14 16:33 748K
20260414T12Z_MSC_GDPS_DewPointDepression_IsbL-0010_LatLon0.15_PT138H.grib2 2026-04-14 16:33 4.2K
20260414T12Z_MSC_GDPS_DewPointDepression_IsbL-0020_LatLon0.15_PT138H.grib2 2026-04-14 16:33 58K
20260414T12Z_MSC_GDPS_DewPointDepression_IsbL-0030_LatLon0.15_PT138H.grib2 2026-04-14 16:33 69K
20260414T12Z_MSC_GDPS_DewPointDepression_IsbL-0050_LatLon0.15_PT138H.grib2 2026-04-14 16:33 324K
20260414T12Z_MSC_GDPS_DewPointDepression_IsbL-0100_LatLon0.15_PT138H.grib2 2026-04-14 16:33 377K
20260414T12Z_MSC_GDPS_DewPointDepression_IsbL-0150_LatLon0.15_PT138H.grib2 2026-04-14 16:33 460K
20260414T12Z_MSC_GDPS_DewPointDepression_IsbL-0175_LatLon0.15_PT138H.grib2 2026-04-14 16:33 535K
20260414T12Z_MSC_GDPS_DewPointDepression_IsbL-0200_LatLon0.15_PT138H.grib2 2026-04-14 16:33 625K
20260414T12Z_MSC_GDPS_DewPointDepression_IsbL-0225_LatLon0.15_PT138H.grib2 2026-04-14 16:33 747K
20260414T12Z_MSC_GDPS_DewPointDepression_IsbL-0250_LatLon0.15_PT138H.grib2 2026-04-14 16:33 858K
20260414T12Z_MSC_GDPS_DewPointDepression_IsbL-0275_LatLon0.15_PT138H.grib2 2026-04-14 16:33 876K
20260414T12Z_MSC_GDPS_DewPointDepression_IsbL-0300_LatLon0.15_PT138H.grib2 2026-04-14 16:33 918K
20260414T12Z_MSC_GDPS_DewPointDepression_IsbL-0350_LatLon0.15_PT138H.grib2 2026-04-14 16:33 952K
20260414T12Z_MSC_GDPS_DewPointDepression_IsbL-0400_LatLon0.15_PT138H.grib2 2026-04-14 16:33 1.0M
20260414T12Z_MSC_GDPS_DewPointDepression_IsbL-0450_LatLon0.15_PT138H.grib2 2026-04-14 16:33 1.0M
20260414T12Z_MSC_GDPS_DewPointDepression_IsbL-0500_LatLon0.15_PT138H.grib2 2026-04-14 16:33 1.0M
20260414T12Z_MSC_GDPS_DewPointDepression_IsbL-0550_LatLon0.15_PT138H.grib2 2026-04-14 16:33 1.0M
20260414T12Z_MSC_GDPS_DewPointDepression_IsbL-0600_LatLon0.15_PT138H.grib2 2026-04-14 16:33 1.1M
20260414T12Z_MSC_GDPS_DewPointDepression_IsbL-0650_LatLon0.15_PT138H.grib2 2026-04-14 16:33 1.1M
20260414T12Z_MSC_GDPS_DewPointDepression_IsbL-0700_LatLon0.15_PT138H.grib2 2026-04-14 16:33 1.1M
20260414T12Z_MSC_GDPS_DewPointDepression_IsbL-0750_LatLon0.15_PT138H.grib2 2026-04-14 16:33 1.1M
20260414T12Z_MSC_GDPS_DewPointDepression_IsbL-0800_LatLon0.15_PT138H.grib2 2026-04-14 16:33 1.2M
20260414T12Z_MSC_GDPS_DewPointDepression_IsbL-0850_LatLon0.15_PT138H.grib2 2026-04-14 16:33 1.2M
20260414T12Z_MSC_GDPS_DewPointDepression_IsbL-0875_LatLon0.15_PT138H.grib2 2026-04-14 16:33 1.1M
20260414T12Z_MSC_GDPS_DewPointDepression_IsbL-0900_LatLon0.15_PT138H.grib2 2026-04-14 16:33 1.1M
20260414T12Z_MSC_GDPS_DewPointDepression_IsbL-0925_LatLon0.15_PT138H.grib2 2026-04-14 16:33 1.0M
20260414T12Z_MSC_GDPS_DewPointDepression_IsbL-0950_LatLon0.15_PT138H.grib2 2026-04-14 16:33 1.0M
20260414T12Z_MSC_GDPS_DewPointDepression_IsbL-0970_LatLon0.15_PT138H.grib2 2026-04-14 16:33 1.0M
20260414T12Z_MSC_GDPS_DewPointDepression_IsbL-0985_LatLon0.15_PT138H.grib2 2026-04-14 16:33 971K
20260414T12Z_MSC_GDPS_DewPointDepression_IsbL-1000_LatLon0.15_PT138H.grib2 2026-04-14 16:33 960K
20260414T12Z_MSC_GDPS_DewPointDepression_IsbL-1015_LatLon0.15_PT138H.grib2 2026-04-14 16:33 895K
20260414T12Z_MSC_GDPS_DewPoint_AGL-2m_LatLon0.15_PT138H.grib2 2026-04-14 16:33 606K
20260414T12Z_MSC_GDPS_DownwardLongwaveRadiationFlux-Accum_Sfc_LatLon0.15_PT138H.grib2 2026-04-14 16:33 830K
20260414T12Z_MSC_GDPS_DownwardShortwaveRadiationFlux-Accum_NTAtm_LatLon0.15_PT138H.grib2 2026-04-14 16:33 200K
20260414T12Z_MSC_GDPS_DownwardShortwaveRadiationFlux-Accum_Sfc_LatLon0.15_PT138H.grib2 2026-04-14 16:33 1.0M
20260414T12Z_MSC_GDPS_FreezingRain-Accum12h_Sfc_LatLon0.15_PT138H.grib2 2026-04-14 16:33 62K
20260414T12Z_MSC_GDPS_FreezingRain-Accum1h_Sfc_LatLon0.15_PT138H.grib2 2026-04-14 16:33 22K
20260414T12Z_MSC_GDPS_FreezingRain-Accum24h_Sfc_LatLon0.15_PT138H.grib2 2026-04-14 16:33 107K
20260414T12Z_MSC_GDPS_FreezingRain-Accum3h_Sfc_LatLon0.15_PT138H.grib2 2026-04-14 16:33 25K
20260414T12Z_MSC_GDPS_FreezingRain-Accum6h_Sfc_LatLon0.15_PT138H.grib2 2026-04-14 16:33 43K
20260414T12Z_MSC_GDPS_FreezingRain-Accum_Sfc_LatLon0.15_PT138H.grib2 2026-04-14 16:33 336K
20260414T12Z_MSC_GDPS_GeopotentialHeight_IsbL-0001_LatLon0.15_PT138H.grib2 2026-04-14 16:33 378K
20260414T12Z_MSC_GDPS_GeopotentialHeight_IsbL-0005_LatLon0.15_PT138H.grib2 2026-04-14 16:33 495K
20260414T12Z_MSC_GDPS_GeopotentialHeight_IsbL-0010_LatLon0.15_PT138H.grib2 2026-04-14 16:33 430K
20260414T12Z_MSC_GDPS_GeopotentialHeight_IsbL-0020_LatLon0.15_PT138H.grib2 2026-04-14 16:33 570K
20260414T12Z_MSC_GDPS_GeopotentialHeight_IsbL-0030_LatLon0.15_PT138H.grib2 2026-04-14 16:33 581K
20260414T12Z_MSC_GDPS_GeopotentialHeight_IsbL-0050_LatLon0.15_PT138H.grib2 2026-04-14 16:33 583K
20260414T12Z_MSC_GDPS_GeopotentialHeight_IsbL-0100_LatLon0.15_PT138H.grib2 2026-04-14 16:33 622K
20260414T12Z_MSC_GDPS_GeopotentialHeight_IsbL-0150_LatLon0.15_PT138H.grib2 2026-04-14 16:33 637K
20260414T12Z_MSC_GDPS_GeopotentialHeight_IsbL-0175_LatLon0.15_PT138H.grib2 2026-04-14 16:33 640K
20260414T12Z_MSC_GDPS_GeopotentialHeight_IsbL-0200_LatLon0.15_PT138H.grib2 2026-04-14 16:33 643K
20260414T12Z_MSC_GDPS_GeopotentialHeight_IsbL-0225_LatLon0.15_PT138H.grib2 2026-04-14 16:33 644K
20260414T12Z_MSC_GDPS_GeopotentialHeight_IsbL-0250_LatLon0.15_PT138H.grib2 2026-04-14 16:33 643K
20260414T12Z_MSC_GDPS_GeopotentialHeight_IsbL-0275_LatLon0.15_PT138H.grib2 2026-04-14 16:33 642K
20260414T12Z_MSC_GDPS_GeopotentialHeight_IsbL-0300_LatLon0.15_PT138H.grib2 2026-04-14 16:33 641K
20260414T12Z_MSC_GDPS_GeopotentialHeight_IsbL-0350_LatLon0.15_PT138H.grib2 2026-04-14 16:33 633K
20260414T12Z_MSC_GDPS_GeopotentialHeight_IsbL-0400_LatLon0.15_PT138H.grib2 2026-04-14 16:33 623K
20260414T12Z_MSC_GDPS_GeopotentialHeight_IsbL-0450_LatLon0.15_PT138H.grib2 2026-04-14 16:33 541K
20260414T12Z_MSC_GDPS_GeopotentialHeight_IsbL-0500_LatLon0.15_PT138H.grib2 2026-04-14 16:33 530K
20260414T12Z_MSC_GDPS_GeopotentialHeight_IsbL-0550_LatLon0.15_PT138H.grib2 2026-04-14 16:33 693K
20260414T12Z_MSC_GDPS_GeopotentialHeight_IsbL-0600_LatLon0.15_PT138H.grib2 2026-04-14 16:33 687K
20260414T12Z_MSC_GDPS_GeopotentialHeight_IsbL-0650_LatLon0.15_PT138H.grib2 2026-04-14 16:33 683K
20260414T12Z_MSC_GDPS_GeopotentialHeight_IsbL-0700_LatLon0.15_PT138H.grib2 2026-04-14 16:33 684K
20260414T12Z_MSC_GDPS_GeopotentialHeight_IsbL-0750_LatLon0.15_PT138H.grib2 2026-04-14 16:33 690K
20260414T12Z_MSC_GDPS_GeopotentialHeight_IsbL-0800_LatLon0.15_PT138H.grib2 2026-04-14 16:33 701K
20260414T12Z_MSC_GDPS_GeopotentialHeight_IsbL-0850_LatLon0.15_PT138H.grib2 2026-04-14 16:33 647K
20260414T12Z_MSC_GDPS_GeopotentialHeight_IsbL-0875_LatLon0.15_PT138H.grib2 2026-04-14 16:33 651K
20260414T12Z_MSC_GDPS_GeopotentialHeight_IsbL-0900_LatLon0.15_PT138H.grib2 2026-04-14 16:33 659K
20260414T12Z_MSC_GDPS_GeopotentialHeight_IsbL-0925_LatLon0.15_PT138H.grib2 2026-04-14 16:33 667K
20260414T12Z_MSC_GDPS_GeopotentialHeight_IsbL-0950_LatLon0.15_PT138H.grib2 2026-04-14 16:33 672K
20260414T12Z_MSC_GDPS_GeopotentialHeight_IsbL-0970_LatLon0.15_PT138H.grib2 2026-04-14 16:33 745K
20260414T12Z_MSC_GDPS_GeopotentialHeight_IsbL-0985_LatLon0.15_PT138H.grib2 2026-04-14 16:33 764K
20260414T12Z_MSC_GDPS_GeopotentialHeight_IsbL-1000_LatLon0.15_PT138H.grib2 2026-04-14 16:33 786K
20260414T12Z_MSC_GDPS_GeopotentialHeight_IsbL-1015_LatLon0.15_PT138H.grib2 2026-04-14 16:33 808K
20260414T12Z_MSC_GDPS_Humidex_Sfc_LatLon0.15_PT138H.grib2 2026-04-14 16:33 5.3M
20260414T12Z_MSC_GDPS_IcePellets-Accum12h_Sfc_LatLon0.15_PT138H.grib2 2026-04-14 16:33 36K
20260414T12Z_MSC_GDPS_IcePellets-Accum1h_Sfc_LatLon0.15_PT138H.grib2 2026-04-14 16:33 12K
20260414T12Z_MSC_GDPS_IcePellets-Accum24h_Sfc_LatLon0.15_PT138H.grib2 2026-04-14 16:33 74K
20260414T12Z_MSC_GDPS_IcePellets-Accum3h_Sfc_LatLon0.15_PT138H.grib2 2026-04-14 16:33 14K
20260414T12Z_MSC_GDPS_IcePellets-Accum6h_Sfc_LatLon0.15_PT138H.grib2 2026-04-14 16:33 23K
20260414T12Z_MSC_GDPS_IcePellets-Accum_Sfc_LatLon0.15_PT138H.grib2 2026-04-14 16:33 195K
20260414T12Z_MSC_GDPS_KIndex_Sfc_LatLon0.15_PT138H.grib2 2026-04-14 16:33 6.5M
20260414T12Z_MSC_GDPS_LatentHeatNetFlux_Sfc_LatLon0.15_PT138H.grib2 2026-04-14 16:33 691K
20260414T12Z_MSC_GDPS_LiftedIndex-MU-VT_IsbL-0500_LatLon0.15_PT138H.grib2 2026-04-14 16:33 5.4M
20260414T12Z_MSC_GDPS_NetLongwaveRadiationFlux-Accum_Sfc_LatLon0.15_PT138H.grib2 2026-04-14 16:33 1.0M
20260414T12Z_MSC_GDPS_NetShortwaveRadiationFlux-Accum_Sfc_LatLon0.15_PT138H.grib2 2026-04-14 16:33 1.0M
20260414T12Z_MSC_GDPS_O3MixingRatio_LatLon0.15_PT138H.grib2 2026-04-14 16:57 2.2M
20260414T12Z_MSC_GDPS_O3_EAtm_LatLon0.15_PT138H.grib2 2026-04-14 16:57 2.1M
20260414T12Z_MSC_GDPS_PlanetaryBoundaryLayerHeight_Sfc_LatLon0.15_PT138H.grib2 2026-04-14 16:33 2.4M
20260414T12Z_MSC_GDPS_Precip-Accum12h_Sfc_LatLon0.15_PT138H.grib2 2026-04-14 16:33 4.0M
20260414T12Z_MSC_GDPS_Precip-Accum1h_Sfc_LatLon0.15_PT138H.grib2 2026-04-14 16:33 3.2M
20260414T12Z_MSC_GDPS_Precip-Accum24h_Sfc_LatLon0.15_PT138H.grib2 2026-04-14 16:33 4.5M
20260414T12Z_MSC_GDPS_Precip-Accum3h_Sfc_LatLon0.15_PT138H.grib2 2026-04-14 16:33 3.4M
20260414T12Z_MSC_GDPS_Precip-Accum6h_Sfc_LatLon0.15_PT138H.grib2 2026-04-14 16:33 3.9M
20260414T12Z_MSC_GDPS_Precip-Accum_Sfc_LatLon0.15_PT138H.grib2 2026-04-14 16:33 5.2M
20260414T12Z_MSC_GDPS_PrecipRate_Sfc_LatLon0.15_PT138H.grib2 2026-04-14 16:33 3.1M
20260414T12Z_MSC_GDPS_PrecipType-Instant_Sfc_LatLon0.15_PT138H.grib2 2026-04-14 16:33 1.5M
20260414T12Z_MSC_GDPS_Pressure_MSL_LatLon0.15_PT138H.grib2 2026-04-14 16:33 717K
20260414T12Z_MSC_GDPS_Pressure_PVU-1.5_LatLon0.15_PT138H.grib2 2026-04-14 16:33 5.8M
20260414T12Z_MSC_GDPS_Pressure_PVU-1_LatLon0.15_PT138H.grib2 2026-04-14 16:33 6.0M
20260414T12Z_MSC_GDPS_Pressure_PVU-2_LatLon0.15_PT138H.grib2 2026-04-14 16:33 5.6M
20260414T12Z_MSC_GDPS_Pressure_Sfc_LatLon0.15_PT138H.grib2 2026-04-14 16:33 1.1M
20260414T12Z_MSC_GDPS_RadiativeTemp_Sfc_LatLon0.15_PT138H.grib2 2026-04-14 16:33 670K
20260414T12Z_MSC_GDPS_Rain-Accum12h_Sfc_LatLon0.15_PT138H.grib2 2026-04-14 16:33 2.6M
20260414T12Z_MSC_GDPS_Rain-Accum1h_Sfc_LatLon0.15_PT138H.grib2 2026-04-14 16:33 1.6M
20260414T12Z_MSC_GDPS_Rain-Accum24h_Sfc_LatLon0.15_PT138H.grib2 2026-04-14 16:33 3.1M
20260414T12Z_MSC_GDPS_Rain-Accum3h_Sfc_LatLon0.15_PT138H.grib2 2026-04-14 16:33 1.6M
20260414T12Z_MSC_GDPS_Rain-Accum6h_Sfc_LatLon0.15_PT138H.grib2 2026-04-14 16:33 2.3M
20260414T12Z_MSC_GDPS_Rain-Accum_Sfc_LatLon0.15_PT138H.grib2 2026-04-14 16:33 3.9M
20260414T12Z_MSC_GDPS_RelativeHumidity_AGL-2m_LatLon0.15_PT138H.grib2 2026-04-14 16:33 1.0M
20260414T12Z_MSC_GDPS_RelativeHumidity_IsbL-0010_LatLon0.15_PT138H.grib2 2026-04-14 16:33 248K
20260414T12Z_MSC_GDPS_RelativeHumidity_IsbL-0020_LatLon0.15_PT138H.grib2 2026-04-14 16:33 363K
20260414T12Z_MSC_GDPS_RelativeHumidity_IsbL-0030_LatLon0.15_PT138H.grib2 2026-04-14 16:33 415K
20260414T12Z_MSC_GDPS_RelativeHumidity_IsbL-0050_LatLon0.15_PT138H.grib2 2026-04-14 16:33 407K
20260414T12Z_MSC_GDPS_RelativeHumidity_IsbL-0100_LatLon0.15_PT138H.grib2 2026-04-14 16:33 481K
20260414T12Z_MSC_GDPS_RelativeHumidity_IsbL-0150_LatLon0.15_PT138H.grib2 2026-04-14 16:33 651K
20260414T12Z_MSC_GDPS_RelativeHumidity_IsbL-0175_LatLon0.15_PT138H.grib2 2026-04-14 16:33 780K
20260414T12Z_MSC_GDPS_RelativeHumidity_IsbL-0200_LatLon0.15_PT138H.grib2 2026-04-14 16:33 688K
20260414T12Z_MSC_GDPS_RelativeHumidity_IsbL-0225_LatLon0.15_PT138H.grib2 2026-04-14 16:33 776K
20260414T12Z_MSC_GDPS_RelativeHumidity_IsbL-0250_LatLon0.15_PT138H.grib2 2026-04-14 16:33 864K
20260414T12Z_MSC_GDPS_RelativeHumidity_IsbL-0275_LatLon0.15_PT138H.grib2 2026-04-14 16:33 885K
20260414T12Z_MSC_GDPS_RelativeHumidity_IsbL-0300_LatLon0.15_PT138H.grib2 2026-04-14 16:33 932K
20260414T12Z_MSC_GDPS_RelativeHumidity_IsbL-0350_LatLon0.15_PT138H.grib2 2026-04-14 16:33 952K
20260414T12Z_MSC_GDPS_RelativeHumidity_IsbL-0400_LatLon0.15_PT138H.grib2 2026-04-14 16:33 1.0M
20260414T12Z_MSC_GDPS_RelativeHumidity_IsbL-0450_LatLon0.15_PT138H.grib2 2026-04-14 16:33 1.0M
20260414T12Z_MSC_GDPS_RelativeHumidity_IsbL-0500_LatLon0.15_PT138H.grib2 2026-04-14 16:33 1.0M
20260414T12Z_MSC_GDPS_RelativeHumidity_IsbL-0550_LatLon0.15_PT138H.grib2 2026-04-14 16:33 1.0M
20260414T12Z_MSC_GDPS_RelativeHumidity_IsbL-0600_LatLon0.15_PT138H.grib2 2026-04-14 16:33 1.0M
20260414T12Z_MSC_GDPS_RelativeHumidity_IsbL-0650_LatLon0.15_PT138H.grib2 2026-04-14 16:33 1.1M
20260414T12Z_MSC_GDPS_RelativeHumidity_IsbL-0700_LatLon0.15_PT138H.grib2 2026-04-14 16:33 1.1M
20260414T12Z_MSC_GDPS_RelativeHumidity_IsbL-0750_LatLon0.15_PT138H.grib2 2026-04-14 16:33 1.1M
20260414T12Z_MSC_GDPS_RelativeHumidity_IsbL-0800_LatLon0.15_PT138H.grib2 2026-04-14 16:33 1.2M
20260414T12Z_MSC_GDPS_RelativeHumidity_IsbL-0850_LatLon0.15_PT138H.grib2 2026-04-14 16:33 1.3M
20260414T12Z_MSC_GDPS_RelativeHumidity_IsbL-0875_LatLon0.15_PT138H.grib2 2026-04-14 16:33 1.3M
20260414T12Z_MSC_GDPS_RelativeHumidity_IsbL-0900_LatLon0.15_PT138H.grib2 2026-04-14 16:33 1.2M
20260414T12Z_MSC_GDPS_RelativeHumidity_IsbL-0925_LatLon0.15_PT138H.grib2 2026-04-14 16:33 1.2M
20260414T12Z_MSC_GDPS_RelativeHumidity_IsbL-0950_LatLon0.15_PT138H.grib2 2026-04-14 16:33 1.2M
20260414T12Z_MSC_GDPS_RelativeHumidity_IsbL-0970_LatLon0.15_PT138H.grib2 2026-04-14 16:33 1.2M
20260414T12Z_MSC_GDPS_RelativeHumidity_IsbL-0985_LatLon0.15_PT138H.grib2 2026-04-14 16:33 1.1M
20260414T12Z_MSC_GDPS_RelativeHumidity_IsbL-1000_LatLon0.15_PT138H.grib2 2026-04-14 16:33 1.1M
20260414T12Z_MSC_GDPS_RelativeHumidity_IsbL-1015_LatLon0.15_PT138H.grib2 2026-04-14 16:33 1.0M
20260414T12Z_MSC_GDPS_RelativeVorticity_IsbL-0200_LatLon0.15_PT138H.grib2 2026-04-14 16:33 1.5M
20260414T12Z_MSC_GDPS_RelativeVorticity_IsbL-0250_LatLon0.15_PT138H.grib2 2026-04-14 16:33 1.3M
20260414T12Z_MSC_GDPS_RelativeVorticity_IsbL-0500_LatLon0.15_PT138H.grib2 2026-04-14 16:33 1.4M
20260414T12Z_MSC_GDPS_RelativeVorticity_IsbL-0700_LatLon0.15_PT138H.grib2 2026-04-14 16:33 1.6M
20260414T12Z_MSC_GDPS_RelativeVorticity_IsbL-0850_LatLon0.15_PT138H.grib2 2026-04-14 16:33 1.6M
20260414T12Z_MSC_GDPS_Runoff-Accum_Sfc_LatLon0.15_PT138H.grib2 2026-04-14 16:33 127K
20260414T12Z_MSC_GDPS_SensibleHeatNetFlux_Sfc_LatLon0.15_PT138H.grib2 2026-04-14 16:33 633K
20260414T12Z_MSC_GDPS_ShowalterIndex_IsbL-0500_LatLon0.15_PT138H.grib2 2026-04-14 16:33 6.2M
20260414T12Z_MSC_GDPS_Snow-Accum12h_Sfc_LatLon0.15_PT138H.grib2 2026-04-14 16:33 1.5M
20260414T12Z_MSC_GDPS_Snow-Accum1h_Sfc_LatLon0.15_PT138H.grib2 2026-04-14 16:33 1.1M
20260414T12Z_MSC_GDPS_Snow-Accum24h_Sfc_LatLon0.15_PT138H.grib2 2026-04-14 16:33 1.6M
20260414T12Z_MSC_GDPS_Snow-Accum3h_Sfc_LatLon0.15_PT138H.grib2 2026-04-14 16:33 1.0M
20260414T12Z_MSC_GDPS_Snow-Accum6h_Sfc_LatLon0.15_PT138H.grib2 2026-04-14 16:33 1.4M
20260414T12Z_MSC_GDPS_Snow-Accum_Sfc_LatLon0.15_PT138H.grib2 2026-04-14 16:33 2.0M
20260414T12Z_MSC_GDPS_SnowDensity_Sfc_LatLon0.15_PT138H.grib2 2026-04-14 16:33 272K
20260414T12Z_MSC_GDPS_SnowDepth_Sfc_LatLon0.15_PT138H.grib2 2026-04-14 16:33 1.8M
20260414T12Z_MSC_GDPS_SoilTemp_DBS-0to10cm_LatLon0.15_PT138H.grib2 2026-04-14 16:33 507K
20260414T12Z_MSC_GDPS_SoilTemp_Sfc_LatLon0.15_PT138H.grib2 2026-04-14 16:33 580K
20260414T12Z_MSC_GDPS_SoilVolumetricIceContent_Sfc_LatLon0.15_PT138H.grib2 2026-04-14 16:33 222K
20260414T12Z_MSC_GDPS_SoilVolumetricWaterContent_DBS-0to10cm_LatLon0.15_PT138H.grib2 2026-04-14 16:33 554K
20260414T12Z_MSC_GDPS_SoilVolumetricWaterContent_DBS-0to1cm_LatLon0.15_PT138H.grib2 2026-04-14 16:33 651K
20260414T12Z_MSC_GDPS_SpecificHumidity_AGL-120m_LatLon0.15_PT138H.grib2 2026-04-14 16:33 1.1M
20260414T12Z_MSC_GDPS_SpecificHumidity_AGL-2m_LatLon0.15_PT138H.grib2 2026-04-14 16:33 1.2M
20260414T12Z_MSC_GDPS_SpecificHumidity_AGL-40m_LatLon0.15_PT138H.grib2 2026-04-14 16:33 1.1M
20260414T12Z_MSC_GDPS_SpecificHumidity_AGL-80m_LatLon0.15_PT138H.grib2 2026-04-14 16:33 1.1M
20260414T12Z_MSC_GDPS_SpecificHumidity_IsbL-0001_LatLon0.15_PT138H.grib2 2026-04-14 16:33 1.1M
20260414T12Z_MSC_GDPS_SpecificHumidity_IsbL-0005_LatLon0.15_PT138H.grib2 2026-04-14 16:33 1.1M
20260414T12Z_MSC_GDPS_SpecificHumidity_IsbL-0010_LatLon0.15_PT138H.grib2 2026-04-14 16:33 1.2M
20260414T12Z_MSC_GDPS_SpecificHumidity_IsbL-0020_LatLon0.15_PT138H.grib2 2026-04-14 16:33 1.2M
20260414T12Z_MSC_GDPS_SpecificHumidity_IsbL-0030_LatLon0.15_PT138H.grib2 2026-04-14 16:33 1.5M
20260414T12Z_MSC_GDPS_SpecificHumidity_IsbL-0050_LatLon0.15_PT138H.grib2 2026-04-14 16:33 1.2M
20260414T12Z_MSC_GDPS_SpecificHumidity_IsbL-0100_LatLon0.15_PT138H.grib2 2026-04-14 16:33 1.3M
20260414T12Z_MSC_GDPS_SpecificHumidity_IsbL-0150_LatLon0.15_PT138H.grib2 2026-04-14 16:33 1.2M
20260414T12Z_MSC_GDPS_SpecificHumidity_IsbL-0175_LatLon0.15_PT138H.grib2 2026-04-14 16:33 1.3M
20260414T12Z_MSC_GDPS_SpecificHumidity_IsbL-0200_LatLon0.15_PT138H.grib2 2026-04-14 16:33 1.3M
20260414T12Z_MSC_GDPS_SpecificHumidity_IsbL-0225_LatLon0.15_PT138H.grib2 2026-04-14 16:33 1.3M
20260414T12Z_MSC_GDPS_SpecificHumidity_IsbL-0250_LatLon0.15_PT138H.grib2 2026-04-14 16:33 1.4M
20260414T12Z_MSC_GDPS_SpecificHumidity_IsbL-0275_LatLon0.15_PT138H.grib2 2026-04-14 16:33 1.3M
20260414T12Z_MSC_GDPS_SpecificHumidity_IsbL-0300_LatLon0.15_PT138H.grib2 2026-04-14 16:33 1.2M
20260414T12Z_MSC_GDPS_SpecificHumidity_IsbL-0350_LatLon0.15_PT138H.grib2 2026-04-14 16:33 1.5M
20260414T12Z_MSC_GDPS_SpecificHumidity_IsbL-0400_LatLon0.15_PT138H.grib2 2026-04-14 16:33 1.5M
20260414T12Z_MSC_GDPS_SpecificHumidity_IsbL-0450_LatLon0.15_PT138H.grib2 2026-04-14 16:33 1.6M
20260414T12Z_MSC_GDPS_SpecificHumidity_IsbL-0500_LatLon0.15_PT138H.grib2 2026-04-14 16:33 1.4M
20260414T12Z_MSC_GDPS_SpecificHumidity_IsbL-0550_LatLon0.15_PT138H.grib2 2026-04-14 16:33 1.6M
20260414T12Z_MSC_GDPS_SpecificHumidity_IsbL-0600_LatLon0.15_PT138H.grib2 2026-04-14 16:33 1.7M
20260414T12Z_MSC_GDPS_SpecificHumidity_IsbL-0650_LatLon0.15_PT138H.grib2 2026-04-14 16:33 1.5M
20260414T12Z_MSC_GDPS_SpecificHumidity_IsbL-0700_LatLon0.15_PT138H.grib2 2026-04-14 16:33 1.6M
20260414T12Z_MSC_GDPS_SpecificHumidity_IsbL-0750_LatLon0.15_PT138H.grib2 2026-04-14 16:33 1.7M
20260414T12Z_MSC_GDPS_SpecificHumidity_IsbL-0800_LatLon0.15_PT138H.grib2 2026-04-14 16:33 1.8M
20260414T12Z_MSC_GDPS_SpecificHumidity_IsbL-0850_LatLon0.15_PT138H.grib2 2026-04-14 16:33 1.9M
20260414T12Z_MSC_GDPS_SpecificHumidity_IsbL-0875_LatLon0.15_PT138H.grib2 2026-04-14 16:33 1.9M
20260414T12Z_MSC_GDPS_SpecificHumidity_IsbL-0900_LatLon0.15_PT138H.grib2 2026-04-14 16:33 1.9M
20260414T12Z_MSC_GDPS_SpecificHumidity_IsbL-0925_LatLon0.15_PT138H.grib2 2026-04-14 16:33 1.9M
20260414T12Z_MSC_GDPS_SpecificHumidity_IsbL-0950_LatLon0.15_PT138H.grib2 2026-04-14 16:33 1.5M
20260414T12Z_MSC_GDPS_SpecificHumidity_IsbL-0970_LatLon0.15_PT138H.grib2 2026-04-14 16:33 1.5M
20260414T12Z_MSC_GDPS_SpecificHumidity_IsbL-0985_LatLon0.15_PT138H.grib2 2026-04-14 16:33 1.5M
20260414T12Z_MSC_GDPS_SpecificHumidity_IsbL-1000_LatLon0.15_PT138H.grib2 2026-04-14 16:33 1.5M
20260414T12Z_MSC_GDPS_SpecificHumidity_IsbL-1015_LatLon0.15_PT138H.grib2 2026-04-14 16:33 1.4M
20260414T12Z_MSC_GDPS_SpecificHumidity_Sfc_LatLon0.15_PT138H.grib2 2026-04-14 16:33 665K
20260414T12Z_MSC_GDPS_Thickness_IsbL-0850to0700_LatLon0.15_PT138H.grib2 2026-04-14 16:33 464K
20260414T12Z_MSC_GDPS_Thickness_IsbL-1000to0500_LatLon0.15_PT138H.grib2 2026-04-14 16:33 375K
20260414T12Z_MSC_GDPS_Thickness_IsbL-1000to0850_LatLon0.15_PT138H.grib2 2026-04-14 16:33 489K
20260414T12Z_MSC_GDPS_TotalCloudCover_Sfc_LatLon0.15_PT138H.grib2 2026-04-14 16:33 810K
20260414T12Z_MSC_GDPS_TotalTotalsIndex_Sfc_LatLon0.15_PT138H.grib2 2026-04-14 16:33 6.2M
20260414T12Z_MSC_GDPS_UVIndex-ClearSky_Sfc_LatLon0.15_PT138H.grib2 2026-04-14 16:57 1.0M
20260414T12Z_MSC_GDPS_UVIndex_Sfc_LatLon0.15_PT138H.grib2 2026-04-14 16:57 1.4M
20260414T12Z_MSC_GDPS_UpwardLongwaveRadiationFlux_NTAtm_LatLon0.15_PT138H.grib2 2026-04-14 16:33 825K
20260414T12Z_MSC_GDPS_VerticalVelocity_IsbL-0200_LatLon0.15_PT138H.grib2 2026-04-14 16:33 1.2M
20260414T12Z_MSC_GDPS_VerticalVelocity_IsbL-0250_LatLon0.15_PT138H.grib2 2026-04-14 16:33 1.0M
20260414T12Z_MSC_GDPS_VerticalVelocity_IsbL-0500_LatLon0.15_PT138H.grib2 2026-04-14 16:33 1.0M
20260414T12Z_MSC_GDPS_VerticalVelocity_IsbL-0600_LatLon0.15_PT138H.grib2 2026-04-14 16:33 1.1M
20260414T12Z_MSC_GDPS_VerticalVelocity_IsbL-0700_LatLon0.15_PT138H.grib2 2026-04-14 16:33 1.1M
20260414T12Z_MSC_GDPS_VerticalVelocity_IsbL-0850_LatLon0.15_PT138H.grib2 2026-04-14 16:33 1.6M
20260414T12Z_MSC_GDPS_WindChill_Sfc_LatLon0.15_PT138H.grib2 2026-04-14 16:33 5.3M
20260414T12Z_MSC_GDPS_WindDir_AGL-10m_LatLon0.15_PT138H.grib2 2026-04-14 16:33 1.3M
20260414T12Z_MSC_GDPS_WindDir_AGL-120m_LatLon0.15_PT138H.grib2 2026-04-14 16:33 1.4M
20260414T12Z_MSC_GDPS_WindDir_AGL-40m_LatLon0.15_PT138H.grib2 2026-04-14 16:33 1.4M
20260414T12Z_MSC_GDPS_WindDir_AGL-80m_LatLon0.15_PT138H.grib2 2026-04-14 16:33 1.4M
20260414T12Z_MSC_GDPS_WindDir_IsbL-0001_LatLon0.15_PT138H.grib2 2026-04-14 16:33 643K
20260414T12Z_MSC_GDPS_WindDir_IsbL-0005_LatLon0.15_PT138H.grib2 2026-04-14 16:33 819K
20260414T12Z_MSC_GDPS_WindDir_IsbL-0010_LatLon0.15_PT138H.grib2 2026-04-14 16:33 876K
20260414T12Z_MSC_GDPS_WindDir_IsbL-0020_LatLon0.15_PT138H.grib2 2026-04-14 16:33 923K
20260414T12Z_MSC_GDPS_WindDir_IsbL-0030_LatLon0.15_PT138H.grib2 2026-04-14 16:33 897K
20260414T12Z_MSC_GDPS_WindDir_IsbL-0050_LatLon0.15_PT138H.grib2 2026-04-14 16:33 960K
20260414T12Z_MSC_GDPS_WindDir_IsbL-0100_LatLon0.15_PT138H.grib2 2026-04-14 16:33 1.0M
20260414T12Z_MSC_GDPS_WindDir_IsbL-0150_LatLon0.15_PT138H.grib2 2026-04-14 16:33 1.0M
20260414T12Z_MSC_GDPS_WindDir_IsbL-0175_LatLon0.15_PT138H.grib2 2026-04-14 16:33 1.0M
20260414T12Z_MSC_GDPS_WindDir_IsbL-0200_LatLon0.15_PT138H.grib2 2026-04-14 16:33 1.1M
20260414T12Z_MSC_GDPS_WindDir_IsbL-0225_LatLon0.15_PT138H.grib2 2026-04-14 16:33 1.1M
20260414T12Z_MSC_GDPS_WindDir_IsbL-0250_LatLon0.15_PT138H.grib2 2026-04-14 16:33 1.1M
20260414T12Z_MSC_GDPS_WindDir_IsbL-0275_LatLon0.15_PT138H.grib2 2026-04-14 16:33 1.1M
20260414T12Z_MSC_GDPS_WindDir_IsbL-0300_LatLon0.15_PT138H.grib2 2026-04-14 16:33 1.1M
20260414T12Z_MSC_GDPS_WindDir_IsbL-0350_LatLon0.15_PT138H.grib2 2026-04-14 16:33 1.2M
20260414T12Z_MSC_GDPS_WindDir_IsbL-0400_LatLon0.15_PT138H.grib2 2026-04-14 16:33 1.2M
20260414T12Z_MSC_GDPS_WindDir_IsbL-0450_LatLon0.15_PT138H.grib2 2026-04-14 16:33 1.3M
20260414T12Z_MSC_GDPS_WindDir_IsbL-0500_LatLon0.15_PT138H.grib2 2026-04-14 16:33 1.3M
20260414T12Z_MSC_GDPS_WindDir_IsbL-0550_LatLon0.15_PT138H.grib2 2026-04-14 16:33 1.4M
20260414T12Z_MSC_GDPS_WindDir_IsbL-0600_LatLon0.15_PT138H.grib2 2026-04-14 16:33 1.4M
20260414T12Z_MSC_GDPS_WindDir_IsbL-0650_LatLon0.15_PT138H.grib2 2026-04-14 16:33 1.5M
20260414T12Z_MSC_GDPS_WindDir_IsbL-0700_LatLon0.15_PT138H.grib2 2026-04-14 16:33 1.6M
20260414T12Z_MSC_GDPS_WindDir_IsbL-0750_LatLon0.15_PT138H.grib2 2026-04-14 16:33 1.7M
20260414T12Z_MSC_GDPS_WindDir_IsbL-0800_LatLon0.15_PT138H.grib2 2026-04-14 16:33 1.8M
20260414T12Z_MSC_GDPS_WindDir_IsbL-0850_LatLon0.15_PT138H.grib2 2026-04-14 16:33 1.9M
20260414T12Z_MSC_GDPS_WindDir_IsbL-0875_LatLon0.15_PT138H.grib2 2026-04-14 16:33 2.0M
20260414T12Z_MSC_GDPS_WindDir_IsbL-0900_LatLon0.15_PT138H.grib2 2026-04-14 16:33 2.0M
20260414T12Z_MSC_GDPS_WindDir_IsbL-0925_LatLon0.15_PT138H.grib2 2026-04-14 16:33 2.0M
20260414T12Z_MSC_GDPS_WindDir_IsbL-0950_LatLon0.15_PT138H.grib2 2026-04-14 16:33 2.0M
20260414T12Z_MSC_GDPS_WindDir_IsbL-0970_LatLon0.15_PT138H.grib2 2026-04-14 16:33 2.0M
20260414T12Z_MSC_GDPS_WindDir_IsbL-0985_LatLon0.15_PT138H.grib2 2026-04-14 16:33 2.0M
20260414T12Z_MSC_GDPS_WindDir_IsbL-1000_LatLon0.15_PT138H.grib2 2026-04-14 16:33 2.1M
20260414T12Z_MSC_GDPS_WindDir_IsbL-1015_LatLon0.15_PT138H.grib2 2026-04-14 16:33 2.1M
20260414T12Z_MSC_GDPS_WindGust-Max_AGL-10m_LatLon0.15_PT138H.grib2 2026-04-14 16:33 2.3M
20260414T12Z_MSC_GDPS_WindGust-Min_AGL-10m_LatLon0.15_PT138H.grib2 2026-04-14 16:33 2.2M
20260414T12Z_MSC_GDPS_WindGust_AGL-10m_LatLon0.15_PT138H.grib2 2026-04-14 16:33 2.2M
20260414T12Z_MSC_GDPS_WindSpeed_AGL-10m_LatLon0.15_PT138H.grib2 2026-04-14 16:33 1.1M
20260414T12Z_MSC_GDPS_WindSpeed_AGL-120m_LatLon0.15_PT138H.grib2 2026-04-14 16:33 1.2M
20260414T12Z_MSC_GDPS_WindSpeed_AGL-40m_LatLon0.15_PT138H.grib2 2026-04-14 16:33 1.2M
20260414T12Z_MSC_GDPS_WindSpeed_AGL-80m_LatLon0.15_PT138H.grib2 2026-04-14 16:33 1.2M
20260414T12Z_MSC_GDPS_WindSpeed_IsbL-0001_LatLon0.15_PT138H.grib2 2026-04-14 16:33 637K
20260414T12Z_MSC_GDPS_WindSpeed_IsbL-0005_LatLon0.15_PT138H.grib2 2026-04-14 16:33 694K
20260414T12Z_MSC_GDPS_WindSpeed_IsbL-0010_LatLon0.15_PT138H.grib2 2026-04-14 16:33 627K
20260414T12Z_MSC_GDPS_WindSpeed_IsbL-0020_LatLon0.15_PT138H.grib2 2026-04-14 16:33 664K
20260414T12Z_MSC_GDPS_WindSpeed_IsbL-0030_LatLon0.15_PT138H.grib2 2026-04-14 16:33 852K
20260414T12Z_MSC_GDPS_WindSpeed_IsbL-0050_LatLon0.15_PT138H.grib2 2026-04-14 16:33 912K
20260414T12Z_MSC_GDPS_WindSpeed_IsbL-0100_LatLon0.15_PT138H.grib2 2026-04-14 16:33 1.1M
20260414T12Z_MSC_GDPS_WindSpeed_IsbL-0150_LatLon0.15_PT138H.grib2 2026-04-14 16:33 1.0M
20260414T12Z_MSC_GDPS_WindSpeed_IsbL-0175_LatLon0.15_PT138H.grib2 2026-04-14 16:33 1.0M
20260414T12Z_MSC_GDPS_WindSpeed_IsbL-0200_LatLon0.15_PT138H.grib2 2026-04-14 16:33 1.1M
20260414T12Z_MSC_GDPS_WindSpeed_IsbL-0225_LatLon0.15_PT138H.grib2 2026-04-14 16:33 1.1M
20260414T12Z_MSC_GDPS_WindSpeed_IsbL-0250_LatLon0.15_PT138H.grib2 2026-04-14 16:33 1.1M
20260414T12Z_MSC_GDPS_WindSpeed_IsbL-0275_LatLon0.15_PT138H.grib2 2026-04-14 16:33 1.1M
20260414T12Z_MSC_GDPS_WindSpeed_IsbL-0300_LatLon0.15_PT138H.grib2 2026-04-14 16:33 1.1M
20260414T12Z_MSC_GDPS_WindSpeed_IsbL-0350_LatLon0.15_PT138H.grib2 2026-04-14 16:33 1.1M
20260414T12Z_MSC_GDPS_WindSpeed_IsbL-0400_LatLon0.15_PT138H.grib2 2026-04-14 16:33 1.1M
20260414T12Z_MSC_GDPS_WindSpeed_IsbL-0450_LatLon0.15_PT138H.grib2 2026-04-14 16:33 1.1M
20260414T12Z_MSC_GDPS_WindSpeed_IsbL-0500_LatLon0.15_PT138H.grib2 2026-04-14 16:33 1.1M
20260414T12Z_MSC_GDPS_WindSpeed_IsbL-0550_LatLon0.15_PT138H.grib2 2026-04-14 16:33 1.1M
20260414T12Z_MSC_GDPS_WindSpeed_IsbL-0600_LatLon0.15_PT138H.grib2 2026-04-14 16:33 1.1M
20260414T12Z_MSC_GDPS_WindSpeed_IsbL-0650_LatLon0.15_PT138H.grib2 2026-04-14 16:33 1.4M
20260414T12Z_MSC_GDPS_WindSpeed_IsbL-0700_LatLon0.15_PT138H.grib2 2026-04-14 16:33 1.5M
20260414T12Z_MSC_GDPS_WindSpeed_IsbL-0750_LatLon0.15_PT138H.grib2 2026-04-14 16:33 1.5M
20260414T12Z_MSC_GDPS_WindSpeed_IsbL-0800_LatLon0.15_PT138H.grib2 2026-04-14 16:33 1.6M
20260414T12Z_MSC_GDPS_WindSpeed_IsbL-0850_LatLon0.15_PT138H.grib2 2026-04-14 16:33 1.8M
20260414T12Z_MSC_GDPS_WindSpeed_IsbL-0875_LatLon0.15_PT138H.grib2 2026-04-14 16:33 1.9M
20260414T12Z_MSC_GDPS_WindSpeed_IsbL-0900_LatLon0.15_PT138H.grib2 2026-04-14 16:33 1.9M
20260414T12Z_MSC_GDPS_WindSpeed_IsbL-0925_LatLon0.15_PT138H.grib2 2026-04-14 16:33 1.9M
20260414T12Z_MSC_GDPS_WindSpeed_IsbL-0950_LatLon0.15_PT138H.grib2 2026-04-14 16:33 1.9M
20260414T12Z_MSC_GDPS_WindSpeed_IsbL-0970_LatLon0.15_PT138H.grib2 2026-04-14 16:33 1.9M
20260414T12Z_MSC_GDPS_WindSpeed_IsbL-0985_LatLon0.15_PT138H.grib2 2026-04-14 16:33 1.8M
20260414T12Z_MSC_GDPS_WindSpeed_IsbL-1000_LatLon0.15_PT138H.grib2 2026-04-14 16:33 1.8M
20260414T12Z_MSC_GDPS_WindSpeed_IsbL-1015_LatLon0.15_PT138H.grib2 2026-04-14 16:33 1.8M
20260414T12Z_MSC_GDPS_WindU_AGL-10m_LatLon0.15_PT138H.grib2 2026-04-14 16:33 1.6M
20260414T12Z_MSC_GDPS_WindU_AGL-120m_LatLon0.15_PT138H.grib2 2026-04-14 16:33 964K
20260414T12Z_MSC_GDPS_WindU_AGL-40m_LatLon0.15_PT138H.grib2 2026-04-14 16:33 1.2M
20260414T12Z_MSC_GDPS_WindU_AGL-80m_LatLon0.15_PT138H.grib2 2026-04-14 16:33 965K
20260414T12Z_MSC_GDPS_WindU_IsbL-0001_LatLon0.15_PT138H.grib2 2026-04-14 16:33 639K
20260414T12Z_MSC_GDPS_WindU_IsbL-0005_LatLon0.15_PT138H.grib2 2026-04-14 16:33 688K
20260414T12Z_MSC_GDPS_WindU_IsbL-0010_LatLon0.15_PT138H.grib2 2026-04-14 16:33 700K
20260414T12Z_MSC_GDPS_WindU_IsbL-0020_LatLon0.15_PT138H.grib2 2026-04-14 16:33 733K
20260414T12Z_MSC_GDPS_WindU_IsbL-0030_LatLon0.15_PT138H.grib2 2026-04-14 16:33 733K
20260414T12Z_MSC_GDPS_WindU_IsbL-0050_LatLon0.15_PT138H.grib2 2026-04-14 16:33 702K
20260414T12Z_MSC_GDPS_WindU_IsbL-0100_LatLon0.15_PT138H.grib2 2026-04-14 16:33 860K
20260414T12Z_MSC_GDPS_WindU_IsbL-0150_LatLon0.15_PT138H.grib2 2026-04-14 16:33 1.0M
20260414T12Z_MSC_GDPS_WindU_IsbL-0175_LatLon0.15_PT138H.grib2 2026-04-14 16:33 1.0M
20260414T12Z_MSC_GDPS_WindU_IsbL-0200_LatLon0.15_PT138H.grib2 2026-04-14 16:33 1.1M
20260414T12Z_MSC_GDPS_WindU_IsbL-0225_LatLon0.15_PT138H.grib2 2026-04-14 16:33 850K
20260414T12Z_MSC_GDPS_WindU_IsbL-0250_LatLon0.15_PT138H.grib2 2026-04-14 16:33 847K
20260414T12Z_MSC_GDPS_WindU_IsbL-0275_LatLon0.15_PT138H.grib2 2026-04-14 16:33 875K
20260414T12Z_MSC_GDPS_WindU_IsbL-0300_LatLon0.15_PT138H.grib2 2026-04-14 16:33 923K
20260414T12Z_MSC_GDPS_WindU_IsbL-0350_LatLon0.15_PT138H.grib2 2026-04-14 16:33 933K
20260414T12Z_MSC_GDPS_WindU_IsbL-0400_LatLon0.15_PT138H.grib2 2026-04-14 16:33 877K
20260414T12Z_MSC_GDPS_WindU_IsbL-0450_LatLon0.15_PT138H.grib2 2026-04-14 16:33 880K
20260414T12Z_MSC_GDPS_WindU_IsbL-0500_LatLon0.15_PT138H.grib2 2026-04-14 16:33 886K
20260414T12Z_MSC_GDPS_WindU_IsbL-0550_LatLon0.15_PT138H.grib2 2026-04-14 16:33 1.1M
20260414T12Z_MSC_GDPS_WindU_IsbL-0600_LatLon0.15_PT138H.grib2 2026-04-14 16:33 1.1M
20260414T12Z_MSC_GDPS_WindU_IsbL-0650_LatLon0.15_PT138H.grib2 2026-04-14 16:33 1.2M
20260414T12Z_MSC_GDPS_WindU_IsbL-0700_LatLon0.15_PT138H.grib2 2026-04-14 16:33 1.2M
20260414T12Z_MSC_GDPS_WindU_IsbL-0750_LatLon0.15_PT138H.grib2 2026-04-14 16:33 1.3M
20260414T12Z_MSC_GDPS_WindU_IsbL-0800_LatLon0.15_PT138H.grib2 2026-04-14 16:33 1.3M
20260414T12Z_MSC_GDPS_WindU_IsbL-0850_LatLon0.15_PT138H.grib2 2026-04-14 16:33 1.4M
20260414T12Z_MSC_GDPS_WindU_IsbL-0875_LatLon0.15_PT138H.grib2 2026-04-14 16:33 1.4M
20260414T12Z_MSC_GDPS_WindU_IsbL-0900_LatLon0.15_PT138H.grib2 2026-04-14 16:33 1.4M
20260414T12Z_MSC_GDPS_WindU_IsbL-0925_LatLon0.15_PT138H.grib2 2026-04-14 16:33 1.4M
20260414T12Z_MSC_GDPS_WindU_IsbL-0950_LatLon0.15_PT138H.grib2 2026-04-14 16:33 1.4M
20260414T12Z_MSC_GDPS_WindU_IsbL-0970_LatLon0.15_PT138H.grib2 2026-04-14 16:33 1.4M
20260414T12Z_MSC_GDPS_WindU_IsbL-0985_LatLon0.15_PT138H.grib2 2026-04-14 16:33 1.7M
20260414T12Z_MSC_GDPS_WindU_IsbL-1000_LatLon0.15_PT138H.grib2 2026-04-14 16:33 1.7M
20260414T12Z_MSC_GDPS_WindU_IsbL-1015_LatLon0.15_PT138H.grib2 2026-04-14 16:33 1.6M
20260414T12Z_MSC_GDPS_WindV_AGL-10m_LatLon0.15_PT138H.grib2 2026-04-14 16:33 1.6M
20260414T12Z_MSC_GDPS_WindV_AGL-120m_LatLon0.15_PT138H.grib2 2026-04-14 16:33 966K
20260414T12Z_MSC_GDPS_WindV_AGL-40m_LatLon0.15_PT138H.grib2 2026-04-14 16:33 1.2M
20260414T12Z_MSC_GDPS_WindV_AGL-80m_LatLon0.15_PT138H.grib2 2026-04-14 16:33 1.2M
20260414T12Z_MSC_GDPS_WindV_IsbL-0001_LatLon0.15_PT138H.grib2 2026-04-14 16:33 694K
20260414T12Z_MSC_GDPS_WindV_IsbL-0005_LatLon0.15_PT138H.grib2 2026-04-14 16:33 779K
20260414T12Z_MSC_GDPS_WindV_IsbL-0010_LatLon0.15_PT138H.grib2 2026-04-14 16:33 804K
20260414T12Z_MSC_GDPS_WindV_IsbL-0020_LatLon0.15_PT138H.grib2 2026-04-14 16:33 665K
20260414T12Z_MSC_GDPS_WindV_IsbL-0030_LatLon0.15_PT138H.grib2 2026-04-14 16:33 850K
20260414T12Z_MSC_GDPS_WindV_IsbL-0050_LatLon0.15_PT138H.grib2 2026-04-14 16:33 904K
20260414T12Z_MSC_GDPS_WindV_IsbL-0100_LatLon0.15_PT138H.grib2 2026-04-14 16:33 849K
20260414T12Z_MSC_GDPS_WindV_IsbL-0150_LatLon0.15_PT138H.grib2 2026-04-14 16:33 1.0M
20260414T12Z_MSC_GDPS_WindV_IsbL-0175_LatLon0.15_PT138H.grib2 2026-04-14 16:33 1.0M
20260414T12Z_MSC_GDPS_WindV_IsbL-0200_LatLon0.15_PT138H.grib2 2026-04-14 16:33 841K
20260414T12Z_MSC_GDPS_WindV_IsbL-0225_LatLon0.15_PT138H.grib2 2026-04-14 16:33 846K
20260414T12Z_MSC_GDPS_WindV_IsbL-0250_LatLon0.15_PT138H.grib2 2026-04-14 16:33 845K
20260414T12Z_MSC_GDPS_WindV_IsbL-0275_LatLon0.15_PT138H.grib2 2026-04-14 16:33 930K
20260414T12Z_MSC_GDPS_WindV_IsbL-0300_LatLon0.15_PT138H.grib2 2026-04-14 16:33 919K
20260414T12Z_MSC_GDPS_WindV_IsbL-0350_LatLon0.15_PT138H.grib2 2026-04-14 16:33 929K
20260414T12Z_MSC_GDPS_WindV_IsbL-0400_LatLon0.15_PT138H.grib2 2026-04-14 16:33 930K
20260414T12Z_MSC_GDPS_WindV_IsbL-0450_LatLon0.15_PT138H.grib2 2026-04-14 16:33 872K
20260414T12Z_MSC_GDPS_WindV_IsbL-0500_LatLon0.15_PT138H.grib2 2026-04-14 16:33 876K
20260414T12Z_MSC_GDPS_WindV_IsbL-0550_LatLon0.15_PT138H.grib2 2026-04-14 16:33 1.1M
20260414T12Z_MSC_GDPS_WindV_IsbL-0600_LatLon0.15_PT138H.grib2 2026-04-14 16:33 1.1M
20260414T12Z_MSC_GDPS_WindV_IsbL-0650_LatLon0.15_PT138H.grib2 2026-04-14 16:33 1.1M
20260414T12Z_MSC_GDPS_WindV_IsbL-0700_LatLon0.15_PT138H.grib2 2026-04-14 16:33 1.2M
20260414T12Z_MSC_GDPS_WindV_IsbL-0750_LatLon0.15_PT138H.grib2 2026-04-14 16:33 1.2M
20260414T12Z_MSC_GDPS_WindV_IsbL-0800_LatLon0.15_PT138H.grib2 2026-04-14 16:33 1.3M
20260414T12Z_MSC_GDPS_WindV_IsbL-0850_LatLon0.15_PT138H.grib2 2026-04-14 16:33 1.4M
20260414T12Z_MSC_GDPS_WindV_IsbL-0875_LatLon0.15_PT138H.grib2 2026-04-14 16:33 1.4M
20260414T12Z_MSC_GDPS_WindV_IsbL-0900_LatLon0.15_PT138H.grib2 2026-04-14 16:33 1.4M
20260414T12Z_MSC_GDPS_WindV_IsbL-0925_LatLon0.15_PT138H.grib2 2026-04-14 16:33 1.4M
20260414T12Z_MSC_GDPS_WindV_IsbL-0950_LatLon0.15_PT138H.grib2 2026-04-14 16:33 1.4M
20260414T12Z_MSC_GDPS_WindV_IsbL-0970_LatLon0.15_PT138H.grib2 2026-04-14 16:33 1.4M
20260414T12Z_MSC_GDPS_WindV_IsbL-0985_LatLon0.15_PT138H.grib2 2026-04-14 16:33 1.4M
20260414T12Z_MSC_GDPS_WindV_IsbL-1000_LatLon0.15_PT138H.grib2 2026-04-14 16:33 1.7M
20260414T12Z_MSC_GDPS_WindV_IsbL-1015_LatLon0.15_PT138H.grib2 2026-04-14 16:33 1.6M